| time (UTC) | temp C | wind direction | speed KPH | gust KPH | rain 1hr cm | rain 24hr cm | rain mn cm | humidity % | barometer mb |
| 20260504223006 | 20 | 42 | 6.4 | 24.1 | 0.00 | 0.00 | 0.00 | 33 | 1005.6 |
| 20260504221507 | 21 | 136 | 8.0 | 19.3 | 0.00 | 0.00 | 0.00 | 29 | 1005.6 |
| 20260504220005 | 21 | 104 | 4.8 | 20.9 | 0.00 | 0.00 | 0.00 | 28 | 1005.6 |
| 20260504214507 | 21 | 201 | 6.4 | 14.5 | 0.00 | 0.00 | 0.00 | 27 | 1005.5 |
| 20260504213003 | 20 | 241 | 6.4 | 22.5 | 0.00 | 0.00 | 0.00 | 28 | 1005.6 |
| 20260504211502 | 20 | 229 | 3.2 | 16.1 | 0.00 | 0.00 | 0.00 | 27 | 1005.7 |
| 20260504210002 | 21 | 241 | 8.0 | 22.5 | 0.00 | 0.00 | 0.00 | 27 | 1005.6 |
| 20260504204501 | 21 | 211 | 8.0 | 25.7 | 0.00 | 0.00 | 0.00 | 27 | 1005.6 |
| 20260504203106 | 21 | 197 | 6.4 | 24.1 | 0.00 | 0.00 | 0.00 | 27 | 1005.6 |
| 20260504201559 | 22 | 181 | 9.7 | 22.5 | 0.00 | 0.00 | 0.00 | 26 | 1005.7 |
| 20260504194604 | 21 | 178 | 8.0 | 22.5 | 0.00 | 0.00 | 0.00 | 27 | 1005.7 |
| 20260504193057 | 21 | 261 | 8.0 | 17.7 | 0.00 | 0.00 | 0.00 | 26 | 1005.7 |
| 20260504191609 | 21 | 239 | 12.9 | 33.8 | 0.00 | 0.00 | 0.00 | 26 | 1005.7 |
| 20260504190053 | 21 | 223 | 6.4 | 19.3 | 0.00 | 0.00 | 0.00 | 26 | 1005.9 |
| 20260504184552 | 21 | 211 | 8.0 | 27.4 | 0.00 | 0.00 | 0.00 | 26 | 1006.2 |
| 20260504183053 | 21 | 186 | 6.4 | 29.0 | 0.00 | 0.00 | 0.00 | 25 | 1006.2 |
| 20260504181556 | 20 | 193 | 12.9 | 37.0 | 0.00 | 0.00 | 0.00 | 24 | 1006.2 |
| 20260504180048 | 21 | 330 | 6.4 | 33.8 | 0.00 | 0.00 | 0.00 | 25 | 1006.4 |
| 20260504174545 | 20 | 145 | 14.5 | 30.6 | 0.00 | 0.00 | 0.00 | 28 | 1006.7 |
| 20260504173043 | 20 | 223 | 9.7 | 29.0 | 0.00 | 0.00 | 0.00 | 27 | 1006.7 |
| 20260504171548 | 20 | 194 | 8.0 | 35.4 | 0.00 | 0.00 | 0.00 | 28 | 1006.7 |
| 20260504081535 | 6 | 199 | 1.6 | 8.0 | 0.00 | 0.00 | 0.00 | 56 | 1009.2 |
| 20260504050021 | 4 | 207 | 0.0 | 3.2 | 0.00 | 0.00 | 0.00 | 59 | 1009.3 |
| 20260504044520 | 4 | 209 | 0.0 | 3.2 | 0.00 | 0.00 | 0.00 | 62 | 1009.3 |
| 20260504043016 | 3 | 229 | 0.0 | 3.2 | 0.00 | 0.00 | 0.00 | 64 | 1009.1 |
| 20260504041514 | 2 | 202 | 0.0 | 3.2 | 0.00 | 0.00 | 0.00 | 64 | 1008.9 |
| 20260504040013 | 2 | 221 | 0.0 | 1.6 | 0.00 | 0.00 | 0.00 | 68 | 1008.9 |
| 20260504034509 | 2 | 236 | 0.0 | 3.2 | 0.00 | 0.00 | 0.00 | 73 | 1008.9 |
| 20260504033012 | 2 | 251 | 1.6 | 4.8 | 0.00 | 0.00 | 0.00 | 74 | 1008.8 |
| 20260504031506 | 2 | 225 | 0.0 | 3.2 | 0.00 | 0.00 | 0.00 | 73 | 1008.7 |
| 20260504030008 | 2 | 208 | 0.0 | 3.2 | 0.00 | 0.00 | 0.00 | 69 | 1008.6 |
| 20260504024502 | 2 | 208 | 0.0 | 3.2 | 0.00 | 0.00 | 0.00 | 67 | 1008.6 |
| 20260504023100 | 3 | 208 | 0.0 | 3.2 | 0.00 | 0.00 | 0.00 | 65 | 1008.5 |
| 20260504021558 | 3 | 208 | 0.0 | 3.2 | 0.00 | 0.00 | 0.00 | 64 | 1008.5 |
| 20260504020057 | 4 | 208 | 0.0 | 3.2 | 0.00 | 0.00 | 0.00 | 62 | 1008.4 |
| 20260504014556 | 5 | 208 | 0.0 | 0.0 | 0.00 | 0.00 | 0.00 | 60 | 1008.4 |
| 20260504013113 | 5 | 208 | 0.0 | 3.2 | 0.00 | 0.00 | 0.00 | 57 | 1008.3 |
| 20260504011556 | 5 | 208 | 0.0 | 3.2 | 0.00 | 0.00 | 0.00 | 55 | 1007.9 |
| 20260504010104 | 6 | 208 | 0.0 | 0.0 | 0.00 | 0.00 | 0.00 | 51 | 1007.9 |
| 20260504004607 | 6 | 208 | 0.0 | 0.0 | 0.00 | 0.00 | 0.00 | 48 | 1007.7 |
| 20260504003054 | 7 | 208 | 0.0 | 3.2 | 0.00 | 0.00 | 0.00 | 47 | 1007.5 |
| 20260504001554 | 7 | 208 | 0.0 | 0.0 | 0.00 | 0.00 | 0.00 | 44 | 1007.3 |
| 20260504000104 | 8 | 208 | 0.0 | 3.2 | 0.00 | 0.00 | 0.00 | 43 | 1007.3 |
| 20260503234553 | 8 | 301 | 0.0 | 3.2 | 0.00 | 0.00 | 0.00 | 43 | 1007.3 |
| 20260503233057 | 9 | 254 | 4.8 | 16.1 | 0.00 | 0.00 | 0.00 | 43 | 1007.0 |
| 20260503231553 | 9 | 244 | 0.0 | 11.3 | 0.00 | 0.00 | 0.00 | 43 | 1006.8 |
| 20260503230057 | 10 | 241 | 0.0 | 9.7 | 0.00 | 0.00 | 0.00 | 42 | 1006.8 |
| 20260503224552 | 10 | 303 | 4.8 | 12.9 | 0.00 | 0.00 | 0.00 | 42 | 1006.7 |